Cleveland Burke, OH

9:37 AM EDT on April 23, 2017 (GMT -0400)
Burke Lakefront

Weather History for KBKL - January, 2000

Change the Weather History Date:

Friday, January 14, 2000

  Actual Average Record
Temperature  
Mean Temperature 21 °F -  
Max Temperature 23 °F 31 °F 50 °F (2006)
Min Temperature 19 °F 20 °F 7 °F (2015)
Degree Days  
Heating Degree Days 44    
Moisture  
Dew Point 13 °F    
Average Humidity 70    
Maximum Humidity 86    
Minimum Humidity 57    
Precipitation  
Precipitation 0.00 in - - ()
Sea Level Pressure  
Sea Level Pressure 30.69 in    
Wind  
Wind Speed 15 mph (WNW)    
Max Wind Speed 21 mph    
Max Gust Speed 28 mph    
Visibility 9 miles    
Events Snow    
Averages and records for this station are not official NWS values.
T = Trace of Precipitation, MM = Missing Value Source: NWS Daily Summary

Daily Weather History Graph

Daily Weather History Graph

Search for Another Location

Airport or City:

Trip Planner

Search our weather history database for the weather conditions in past years. The results will help you decide how hot, cold, wet, or windy it might be!

Date:

Astronomy

Jan. 14, 2000 Rise Set
Actual Time 7:51 AM EST 5:20 PM EST
Civil Twilight 7:20 AM EST 5:50 PM EST
Nautical Twilight 6:46 AM EST 6:24 PM EST
Astronomical Twilight 6:13 AM EST 6:58 PM EST
Moon 12:18 PM EST (1/14) 12:21 AM EST (1/14)
Length of Visible Light 10h 29m
Length of Day
9h 28m
First Quarter, 52% of the Moon is Illuminated
Jan 14
First Quarter
Jan 20
Full
Jan 28
Last Quarter
Feb 5
New
Feb 12
First Quarter

Hourly Weather History & Observations

Time (EST) Temp. Windchill Dew Point Humidity Pressure Visibility Wind Dir Wind Speed Gust Speed Precip Events Conditions
12:53 AM 21.9 °F 8.2 °F 15.1 °F 75% 30.62 in 10.0 mi NNW 16.1 mph - 0.00 in   Overcast
1:53 AM 21.9 °F 7.8 °F 15.1 °F 75% 30.62 in 10.0 mi NNW 17.3 mph 21.9 mph N/A   Overcast
2:07 AM 21.2 °F 7.8 °F 15.8 °F 80% 30.60 in 10.0 mi NNW 15.0 mph - N/A   Mostly Cloudy
2:44 AM 21.2 °F 7.3 °F 14.0 °F 74% 30.62 in 10.0 mi NW 16.1 mph - N/A   Mostly Cloudy
2:53 AM 21.9 °F 8.2 °F 14.0 °F 72% 30.66 in 10.0 mi NW 16.1 mph - N/A   Mostly Cloudy
3:05 AM 21.2 °F 8.3 °F 12.2 °F 68% 30.63 in 10.0 mi NW 13.8 mph - N/A   Scattered Clouds
3:53 AM 21.0 °F 7.6 °F 12.9 °F 71% 30.67 in 10.0 mi WNW 15.0 mph - N/A   Partly Cloudy
4:53 AM 21.0 °F 6.2 °F 8.1 °F 57% 30.69 in 10.0 mi NW 18.4 mph - N/A   Partly Cloudy
5:53 AM 19.9 °F 5.2 °F 12.9 °F 74% 30.69 in 10.0 mi WNW 17.3 mph - N/A   Partly Cloudy
6:12 AM 19.4 °F 4.5 °F 12.2 °F 74% 30.66 in 10.0 mi WNW 17.3 mph 25.3 mph N/A   Mostly Cloudy
6:53 AM 19.9 °F 5.7 °F 12.9 °F 74% 30.69 in 10.0 mi WNW 16.1 mph - N/A   Mostly Cloudy
7:53 AM 19.9 °F 4.3 °F 12.0 °F 71% 30.71 in 10.0 mi WNW 19.6 mph - N/A   Overcast
8:38 AM 21.2 °F 6.8 °F 12.2 °F 68% 30.70 in 10.0 mi NW 17.3 mph 21.9 mph N/A   Overcast
8:53 AM 21.0 °F 6.2 °F 12.9 °F 71% 30.74 in 10.0 mi NW 18.4 mph - N/A   Overcast
9:53 AM 21.9 °F 6.9 °F 12.9 °F 68% 30.75 in 10.0 mi NW 19.6 mph - N/A   Overcast
10:53 AM 23.0 °F 8.0 °F 12.0 °F 63% 30.76 in 10.0 mi NW 20.7 mph 27.6 mph N/A   Overcast
11:53 AM 21.9 °F 8.2 °F 12.0 °F 66% 30.75 in 10.0 mi NW 16.1 mph - N/A   Overcast
12:53 PM 23.0 °F 11.1 °F 12.0 °F 63% 30.74 in 10.0 mi NW 12.7 mph - N/A   Overcast
1:53 PM 23.0 °F 11.7 °F 12.0 °F 63% 30.73 in 10.0 mi WNW 11.5 mph - N/A   Overcast
2:53 PM 23.0 °F 10.6 °F 12.0 °F 63% 30.73 in 10.0 mi West 13.8 mph - N/A   Overcast
3:21 PM 23.0 °F 9.6 °F 17.6 °F 80% 30.70 in 2.5 mi West 16.1 mph - 0.00 in Snow Light Snow
3:30 PM 23.0 °F 10.6 °F 17.6 °F 80% 30.70 in 1.0 mi West 13.8 mph - 0.00 in Snow Light Snow
3:46 PM 21.2 °F 6.4 °F 17.6 °F 86% 30.71 in 2.0 mi WSW 18.4 mph - 0.00 in Snow Light Snow
3:53 PM 21.9 °F 7.8 °F 17.1 °F 82% 30.74 in 5.0 mi WSW 17.3 mph - 0.00 in Snow Light Snow
4:53 PM 21.9 °F 9.2 °F 15.1 °F 75% 30.74 in 9.0 mi WSW 13.8 mph - 0.00 in Snow Light Snow
5:53 PM 21.9 °F 11.7 °F 12.9 °F 68% 30.72 in 10.0 mi SSW 9.2 mph - 0.00 in   Overcast
6:53 PM 21.0 °F 12.4 °F 12.0 °F 68% 30.71 in 10.0 mi SSW 6.9 mph - N/A   Overcast
7:53 PM 21.0 °F 9.9 °F 10.0 °F 63% 30.72 in 10.0 mi SW 10.4 mph - N/A   Overcast
8:53 PM 21.0 °F 9.9 °F 10.0 °F 63% 30.71 in 10.0 mi South 10.4 mph - N/A   Overcast
9:53 PM 21.0 °F 12.4 °F 10.9 °F 65% 30.69 in 10.0 mi SSE 6.9 mph - N/A   Overcast
10:53 PM 19.9 °F 9.3 °F 10.0 °F 65% 30.66 in 10.0 mi SSE 9.2 mph - N/A   Overcast
11:53 PM 19.9 °F 10.1 °F 10.9 °F 68% 30.65 in 10.0 mi South 8.1 mph - N/A   Overcast